Starlink 32316

operational
NORAD ID: 61860 Int'l Des: 2024-202 Owner: SPXS Country: US Constellation: starlink
LEOCIRCULAR

Über Starlink 32316

Beschreibung wird geladen...

Live-Position

3D-Globus wird geladen...

Nächste Überflüge

Höhenverlauf

Altitude vs Time

uPlot chart will show altitude changes over time

Zweizeiliger Elementsatz

1 61860U 24202R 25259.06650556 .00008065 00000-0 30206-3 0 9990
2 61860 43.0098 140.5016 0003614 264.2814 95.7625 15.27604249 48663
Epoch: 16. Sept. 2025 • Age: 9 hours

Aktueller Status

Höhe 493.8 km
Geschwindigkeit 7.62 km/s
Subsatellitenpunkt -43.16°S, 105.44°W
Startdatum 7. Nov. 2024
Alter 0.8 years
Typ internet

Technische Details

Klassifizierung Payload
Masse 730.00 kg
Trockenmasse 700.00 kg
Gesamtmasse 730.00 kg
Länge 0.30 m
Durchmesser 4.10 m
Spannweite 29.00 m
Form Box + pan
Hersteller SPXS
Bus-Typ Starlink V2M
Phasenstatus In Orbit
Besitzer/Staat SPXS/US

Große Konstellationen

Loading constellations...